Content
SEND FEEDBACK

Daily
Averages
Monthly
Summary
Greece

ATHENS, GREECE


Home > Europe > Greece
Elevation: 69 feet     Latitude: 37 54N     Longitude: 023 44E

WEATHER
 
SELECT A DAY
Number of Records: 81,986;   Date Range: 4/14/01 - 10/29/14
 
SHARE

PRINT THIS DATA

[ ← Previous Day ]
WEATHER ALMANAC - FEBRUARY 13, 2013
[ Next Day → ]
[ °C ]   °F
Weather ElementAverageHighLow
Temperature53.2 °F59 °F (12:50 pm)48.2 °F (2:20 pm)
Dewpoint43 °F44.6 °F (5:50 am)39.2 °F (1:50 pm)
Humidity68.7 %87 % (3:20 pm)55 % (12:50 pm)
Barometer28.67 in30.01 in (12:50 am) (7:00 pm)
Wind Speed9.9 mph23 mph (9:50 am)
Wind Gust36.8 mph (9:50 am)
Weather ElementAverage
Visibility5.9 mi
Wind DirectionSSE (160.9 °)

Weather ElementTotal
Precipitation---
Heating Degree Days11.4 (Base 65)
Growing Degree Days3.6 (Base 50)
Averaged from 47 records on February 13, 2013
WEATHER CONDITIONS BREAKOUT
WIND DIRECTION BREAKOUT
WEATHER BY HOUR - FEBRUARY 13, 2013
[ °C ]   °F
Local TimeTemperatureDewpointHumidityBarometerVisibilityWind DirectionWind SpeedGust SpeedPrecipitationEventsConditions
12:50 AM51.8 °F42.8 °F71 %30.01 in6.2 miVariable3.5 mphMostly Cloudy
1:20 AM50.0 °F41.0 °F71 %30.01 in6.2 miSSE (160°)3.5 mphMostly Cloudy
1:50 AM51.8 °F41.0 °F67 %30.01 in6.2 miSSE (160°)2.3 mphMostly Cloudy
2:20 AM51.8 °F41.0 °F67 %30.01 in6.2 miSSE (160°)4.6 mphMostly Cloudy
2:50 AM51.8 °F41.0 °F67 %30.01 in6.2 miSSE (150°)6.9 mphMostly Cloudy
3:20 AM51.8 °F42.8 °F71 %30.01 in6.2 miSSE (160°)6.9 mphMostly Cloudy
3:50 AM51.8 °F42.8 °F71 %29.98 in6.2 miSouth (170°)4.6 mphMostly Cloudy
4:20 AM51.8 °F42.8 °F71 %29.98 in6.2 miSouth (180°)4.6 mphMostly Cloudy
4:50 AM51.8 °F42.8 °F71 %29.95 in6.2 miSSE (150°)4.6 mphMostly Cloudy
5:20 AM53.6 °F42.8 °F67 %29.95 in6.2 miSE (140°)9.2 mphMostly Cloudy
5:50 AM53.6 °F44.6 °F72 %29.95 in6.2 miSE (140°)11.5 mphMostly Cloudy
6:20 AM53.6 °F44.6 °F72 %29.92 in6.2 miSE (130°)13.8 mphMostly Cloudy
6:50 AM53.6 °F42.8 °F67 %29.92 in6.2 miSE (140°)13.8 mphMostly Cloudy
7:20 AM53.6 °F42.8 °F67 %29.92 in6.2 miSSE (150°)12.7 mphMostly Cloudy
7:50 AM53.6 °F42.8 °F67 %29.92 in6.2 miSSE (150°)10.4 mphMostly Cloudy
8:20 AM55.4 °F44.6 °F67 %29.92 in6.2 miSE (140°)12.7 mphMostly Cloudy
8:50 AM55.4 °F44.6 °F67 %29.92 in6.2 miSSE (150°)15.0 mphMostly Cloudy
9:20 AM57.2 °F42.8 °F59 %29.92 in6.2 miSSE (160°)18.4 mphMostly Cloudy
9:50 AM55.4 °F42.8 °F63 %29.92 in6.2 miSSE (160°)23.0 mph36.8 mphRainLight Rain
10:20 AM55.4 °F44.6 °F67 %29.95 in6.2 miSSE (160°)19.6 mphDrizzle
10:50 AM55.4 °F44.6 °F67 %29.92 in6.2 miSSE (160°)18.4 mphMostly Cloudy
11:20 AM57.2 °F44.6 °F63 %29.92 in6.2 miSSE (160°)20.7 mphMostly Cloudy
11:50 AM57.2 °F44.6 °F63 %29.92 in6.2 miSSE (160°)18.4 mphMostly Cloudy
12:20 PM57.2 °F44.6 °F63 %29.92 in6.2 miSouth (170°)19.6 mphMostly Cloudy
12:50 PM59.0 °F42.8 °F55 %29.89 in6.2 miNW (310°)9.2 mph20.7 mphMostly Cloudy
1:20 PM59.0 °F42.8 °F55 %29.89 in6.2 miSSE (160°)21.9 mphMostly Cloudy
1:50 PM51.8 °F39.2 °F62 %29.92 in6.2 miWest (270°)20.7 mphOvercast
2:20 PM48.2 °F41.0 °F76 %29.95 in3.7 miVariable2.3 mphRain-ThunderstormThunderstorms and Rain
2:50 PM48.2 °F42.8 °F82 %29.95 in3.1 miVariable2.3 mphRain-ThunderstormThunderstorms and Rain
3:20 PM48.2 °F44.6 °F87 %29.95 in3.7 miSW (220°)5.8 mphRainRain
3:50 PM50.0 °F44.6 °F82 %29.95 in4.3 miSSW (200°)8.1 mphRainRain
4:20 PM50.0 °F44.6 °F82 %29.95 in4.3 miSSW (210°)4.6 mphRainLight Rain
4:50 PM50.0 °F44.6 °F82 %29.92 in5.6 miSSW (200°)13.8 mphRainLight Rain
5:20 PM51.8 °F44.6 °F76 %29.92 in6.2 miSouth (180°)6.9 mphRainLight Rain
5:50 PM51.8 °F42.8 °F71 %29.92 in6.2 miVariable2.3 mphMostly Cloudy
6:20 PM53.6 °F42.8 °F67 %29.92 in6.2 miSW (220°)4.6 mphMostly Cloudy
6:50 PM53.6 °F42.8 °F67 %29.92 in6.2 miSW (220°)5.8 mphMostly Cloudy
7:20 PM51.8 °F42.8 °F71 %29.92 in6.2 miNorth (350°)2.3 mphMostly Cloudy
7:50 PM51.8 °F42.8 °F71 %29.92 in6.2 miNorth (10°)3.5 mphMostly Cloudy
8:20 PM53.6 °F44.6 °F72 %6.2 miVariable1.2 mphMostly Cloudy
8:50 PM53.6 °F41.0 °F62 %29.95 in6.2 miSSW (200°)8.1 mphMostly Cloudy
9:20 PM53.6 °F41.0 °F62 %29.92 in6.2 miSouth (190°)15.0 mphMostly Cloudy
9:50 PM53.6 °F41.0 °F62 %29.92 in6.2 miSSW (200°)10.4 mphMostly Cloudy
10:20 PM53.6 °F42.8 °F67 %29.92 in6.2 miSW (230°)6.9 mphMostly Cloudy
10:50 PM53.6 °F42.8 °F67 %29.92 in6.2 miSW (220°)6.9 mphMostly Cloudy
11:20 PM53.6 °F42.8 °F67 %6.2 miSSW (200°)12.7 mphMostly Cloudy
11:50 PM53.6 °F42.8 °F67 %29.95 in6.2 miSSW (210°)11.5 mphMostly Cloudy
Hourly data recorded from LGAV, located miles away from Athens, Greece







STORIES FROM OUR PARTNERS